Location: Del Amo
(33.8464°N, 118.2104°W)
Time: 19:46:37
(UTC+00:00)

Vanguard 3 - Pass Details

Date: 20 September 2024
Orbit: 507 x 3224 km, 33.4° (Epoch: 05 October)

Event Time Altitude Azimuth Distance (km) Brightness Sun altitude
Rises 14:06:28 0° 254° (WSW) 6,258 11.0 4.7°
Reaches altitude 10° 14:10:09 10° 254° (WSW) 5,505 10.8 5.4°
Maximum altitude 14:28:29 85° 169° (SSE) 3,234 10.4 9.2°
Drops below altitude 10° 14:47:21 10° 84° (E) 5,632 13.4 13.1°
Sets 14:51:10 0° 84° (E) 6,402 13.3 13.9°
